Showing default

ANSER-FLW1, 58019

Orbit data source: Space-Track

ANSER-FLW1, 58019 is a payload satellite owned by INTA (ES) in SSO that was launched on Mon, 09 Oct 2023 UTC via a VEGA launch vehicle from the French Guiana (FRGUI). Payload-class satellites include a variety of spacecraft equipped with specific instruments for various scientific and technological missions. These include communications satellites like Starlink; space stations such as the ISS; scientific satellites like the Hubble; Earth observation satellites from companies like Planet Labs, Umbra, and HawkEye 360; GPS; miniature CubeSats for education and research; and military/defense satellites.

Loading next visibility...
Identifier
58019, 2023-155D
Orbit
SSO
Country
Flag of ESES / SPN
Related business
Manufacturer
INTA
Mission
Operational Civil Imaging
Bus & Motor
CUBESAT 3U, Unknown motor
Mass
4 kg wet, 4 kg dry
Launch date (UTC)
2023-10-09 (2 years ago)
Launch vehicle
VEGA
Launch site
French Guiana (FRGUI)
Object type
Payload
Rocket body
Debris
Shape & HBR
Box + 2 Pan, 0.1 m
Radar Cross Section
0.035 m², Small (<0.1 m²)

Expand to show TLE details & history
Last TLE update: 4 hours ago

TLE from 4 hours ago
0 ANSER-FLW1
1 58019U 23155D   25308.17324221  .00020800  00000-0  72815-3 0  9995
2 58019  97.5805  26.2586 0002672 139.7672 220.3765 15.29527900114382
Epoch: 2025-11-04T04:09Z
TLE epoch observation values (Epoch: 2025-11-04T04:09:28.126Z)
Latitude
-0.00015°
Longitude
-79.77264°
Altitude
481.717 km
Speed
7.624 km/s
True Right ascension
01h 45m 02s
True Declination
0° 00' 01"
Sunlit
Object was in full shadow at epoch
Visualization orbit readout
Latitude
Unknown
Longitude
Unknown
Altitude
Unknown
Speed
Unknown
Apparent Right ascension
Unknown
Apparent Declination
Unknown
Sunlit
N/A
Visualization observer readout
Local Sidereal Time
03:53:54
Azimuth
Unknown
Elevation
Unknown
Doppler factor
Unknown
Orbital elements
Apogee altitude
476.014 km
Perigee altitude
472.352 km
Semi-major axis
6,852.32 km
Eccentricity
0.00027
Inclination
97.5805°
RAAN
26.2586°
Arg. of periapsis
139.7672°
True anomaly
220.35667°
Mean anomaly
220.3765°
Eccentric anomaly
220.36658°
Mean motion
3.82637 °/min
Orbital period
94.08 mins
BSTAR
0.00072815
Loading maneuver chart data...
Computing Atmospheric mass density...
Loading historical data...
Loading historical data...
Loading historical data...
Loading historical data...
Loading historical data...
Loading historical data...
Loading historical data...

Documentation

Showing up to 5 results
|